Tracking 20621 objects as of 1-Apr-2020
HD Live streaming from Space Station
objects crossing your sky now

COSMOS 2142

Track COSMOS 2142 now!
10-day predictions
COSMOS 2142 is classified as:


NORAD ID: 21230
Int'l Code: 1991-029A
Perigee: 966.7 km
Apogee: 1,024.2 km
Inclination: 83.0 °
Period: 104.9 minutes
Semi major axis: 7366 km
RCS: 2.0441 m2 (large)
Launch date: April 16, 1991
Source: Commonwealth of Independent States (former USSR) (CIS)
Launch site: PLESETSK MISSILE AND SPACE COMPLEX (PKMTR)
aabbcc
Your satellite tracking list
Your tracking list is empty




NASA's NSSDC Master Catalog

Two Line Element Set (TLE):
1 21230U 91029A   20091.78737128  .00000022  00000-0  72845-5 0  9999
2 21230  82.9520 111.1221 0039019  40.9483 132.2334 13.73141290451262
Source of the keplerian elements: AFSPC